User: anonymous   Login
Location: Unspecified
(0.0000°N, 0.0000°E)
Time: 19:51:08
(UTC+00:00)
Language:

ARGOS - Orbit

View from above orbital plane
View from above orbital plane
View from above satellite
View from above satellite

Ground track
Ground track

The orbit data is extracted from the following two-line orbital elements,

1 25634U 99008A   17269.28843874 -.00000015  00000-0  13089-4 0  9997
2 25634  98.6084 329.3109 0009058 276.9945  83.0201 14.19318553962807
Epoch (UTC): 26 September 2017 06:55:21
Eccentricity: 0.0009058
inclination: 98.6084°
perigee height: 821 km
apogee height: 834 km
right ascension of ascending node: 329.3109°
argument of perigee: 276.9945°
revolutions per day: 14.19318553
mean anomaly at epoch: 83.0201°
orbit number at epoch: 96280

The dashed part of the orbit path shows where the satellite is in the earth's shadow,  

DLR